Location: Bachas
(43.2439°N, 0.9375°E)
Time: 08:06:57
(UTC+00:00)

Cosmos 1869 - Pass Details

Date: 18 February 2020
Orbit: 524 x 559 km, 82.5° (Epoch: 27 March)

Event Time Altitude Azimuth Distance (km) Brightness Sun altitude
Rises 05:48:08 0° 207° (SSW) 2,713 6.6 -12.1°
Reaches altitude 10° 05:50:26 10° 216° (SW) 1,819 5.7 -11.6°
Maximum altitude 05:54:08 35° 283° (WNW) 887 3.9 -11.0°
Drops below altitude 10° 05:57:49 10° 351° (N) 1,814 5.8 -10.3°
Sets 06:00:07 0° 0° (N) 2,705 6.8 -9.9°
